When you browse on this site, cookies collect data to enhance your experience and personalize the content and advertising you see.
Visit our Privacy Policy to learn more. By continuing to use the site, you agree to this use of cookies and data.
  • In Schweiz
  • Länderverzeichnis
  • Für 7 Tage
  • Wassertemperatur
  • Satellitenkarten
  • Wetterkarte
  • Widgets
  • user-avatar
    Anmelden

    Stündliche Wetter Da Nang

    Heute, 17 Juli, Mittwoch

    Zeit Temperatur Niederschläge Wind Luftdruck Luftfeuchtigkeit
    00:00 +27°C° 0 mm 2 m/S 752 mmHg 92%
    01:00 +27°C° 0 mm 2 m/S 752 mmHg 93%
    02:00 +27°C° 0 mm 2 m/S 752 mmHg 93%
    03:00 +27°C° 0 mm 2 m/S 752 mmHg 92%
    04:00 +27°C° 0 mm 2 m/S 751 mmHg 92%
    05:00 +27°C° 0 mm 2 m/S 751 mmHg 89%
    06:00 +28°C° 0 mm 1 m/S 751 mmHg 86%
    07:00 +29°C° 0 mm 1 m/S 751 mmHg 83%
    08:00 +32°C° 0 mm 1 m/S 751 mmHg 71%
    09:00 +35°C° 0 mm 1 m/S 751 mmHg 60%
    10:00 +37°C° 0 mm 1 m/S 751 mmHg 48%
    11:00 +39°C° 0 mm 2 m/S 751 mmHg 47%
    12:00 +39°C° 0 mm 2 m/S 750 mmHg 46%
    13:00 +39°C° 0 mm 3 m/S 750 mmHg 45%
    14:00 +38°C° 0 mm 3 m/S 749 mmHg 49%
    15:00 +37°C° 0 mm 3 m/S 749 mmHg 54%
    16:00 +36°C° 0 mm 3 m/S 749 mmHg 58%
    17:00 +34°C° 0.5 mm 3 m/S 749 mmHg 69%
    18:00 +31°C° 0.5 mm 2 m/S 750 mmHg 80%
    19:00 +29°C° 0.5 mm 2 m/S 750 mmHg 91%
    20:00 +29°C° 0.1 mm 2 m/S 751 mmHg 91%
    21:00 +28°C° 0.1 mm 2 m/S 751 mmHg 92%
    22:00 +28°C° 0.1 mm 2 m/S 751 mmHg 92%
    23:00 +28°C° 0 mm 2 m/S 751 mmHg 92%

    Morgen, 18 Juli, Donnerstag

    Zeit Temperatur Niederschläge Wind Luftdruck Luftfeuchtigkeit
    00:00 +28°C° 0 mm 2 m/S 751 mmHg 92%
    01:00 +27°C° 0 mm 2 m/S 751 mmHg 92%
    02:00 +27°C° 0 mm 2 m/S 751 mmHg 91%
    03:00 +27°C° 0 mm 2 m/S 751 mmHg 90%
    04:00 +27°C° 0 mm 2 m/S 750 mmHg 89%
    05:00 +28°C° 0 mm 2 m/S 750 mmHg 86%
    06:00 +29°C° 0 mm 2 m/S 751 mmHg 83%
    07:00 +29°C° 0 mm 2 m/S 751 mmHg 80%
    08:00 +31°C° 0 mm 2 m/S 751 mmHg 71%
    09:00 +34°C° 0 mm 2 m/S 751 mmHg 62%
    10:00 +37°C° 0 mm 2 m/S 751 mmHg 53%
    11:00 +38°C° 0 mm 2 m/S 750 mmHg 49%
    12:00 +39°C° 0 mm 2 m/S 750 mmHg 45%
    13:00 +41°C° 0 mm 2 m/S 749 mmHg 41%
    14:00 +39°C° 0 mm 2 m/S 749 mmHg 48%
    15:00 +37°C° 0 mm 2 m/S 748 mmHg 56%
    16:00 +36°C° 0 mm 2 m/S 748 mmHg 63%
    17:00 +34°C° 0.2 mm 2 m/S 748 mmHg 70%
    18:00 +32°C° 0.2 mm 2 m/S 749 mmHg 77%
    19:00 +30°C° 0.2 mm 2 m/S 749 mmHg 84%
    20:00 +30°C° 0.3 mm 2 m/S 750 mmHg 87%
    21:00 +29°C° 0.3 mm 2 m/S 751 mmHg 89%
    22:00 +29°C° 0.3 mm 2 m/S 751 mmHg 91%
    23:00 +29°C° 0 mm 2 m/S 751 mmHg 90%

    übermorgen, 19 Juli, Freitag

    Zeit Temperatur Niederschläge Wind Luftdruck Luftfeuchtigkeit
    00:00 +29°C° 0 mm 2 m/S 751 mmHg 90%
    01:00 +28°C° 0 mm 2 m/S 750 mmHg 89%
    02:00 +28°C° 0 mm 2 m/S 750 mmHg 88%
    03:00 +28°C° 0 mm 2 m/S 750 mmHg 88%
    04:00 +28°C° 0 mm 2 m/S 750 mmHg 87%
    05:00 +29°C° 0 mm 2 m/S 750 mmHg 84%
    06:00 +29°C° 0 mm 2 m/S 750 mmHg 81%
    07:00 +30°C° 0 mm 2 m/S 750 mmHg 78%
    08:00 +32°C° 0 mm 2 m/S 751 mmHg 68%
    09:00 +36°C° 0 mm 2 m/S 751 mmHg 58%
    10:00 +38°C° 0 mm 2 m/S 751 mmHg 48%
    11:00 +39°C° 0 mm 2 m/S 751 mmHg 46%
    12:00 +40°C° 0 mm 2 m/S 750 mmHg 44%
    13:00 +41°C° 0 mm 2 m/S 750 mmHg 42%
    14:00 +38°C° 0.2 mm 2 m/S 750 mmHg 55%
    15:00 +36°C° 0.2 mm 3 m/S 749 mmHg 67%
    16:00 +33°C° 0.2 mm 3 m/S 749 mmHg 80%
    17:00 +31°C° 0.5 mm 2 m/S 749 mmHg 84%
    18:00 +30°C° 0.5 mm 2 m/S 750 mmHg 87%
    19:00 +29°C° 0.5 mm 2 m/S 750 mmHg 91%
    20:00 +29°C° 0.1 mm 2 m/S 751 mmHg 91%
    21:00 +29°C° 0.1 mm 2 m/S 751 mmHg 92%
    22:00 +29°C° 0.1 mm 2 m/S 752 mmHg 92%
    23:00 +29°C° 0 mm 2 m/S 752 mmHg 92%

    20 Juli, Samstag

    Zeit Temperatur Niederschläge Wind Luftdruck Luftfeuchtigkeit
    00:00 +29°C° 0 mm 2 m/S 751 mmHg 91%
    01:00 +28°C° 0 mm 2 m/S 751 mmHg 91%
    02:00 +28°C° 0 mm 2 m/S 751 mmHg 90%
    03:00 +28°C° 0 mm 2 m/S 750 mmHg 89%
    04:00 +27°C° 0 mm 2 m/S 750 mmHg 88%
    05:00 +28°C° 0 mm 2 m/S 751 mmHg 85%
    06:00 +29°C° 0 mm 2 m/S 751 mmHg 82%
    07:00 +30°C° 0 mm 2 m/S 751 mmHg 79%
    08:00 +32°C° 0 mm 2 m/S 751 mmHg 69%
    09:00 +35°C° 0 mm 1 m/S 752 mmHg 59%
    10:00 +37°C° 0 mm 1 m/S 752 mmHg 49%
    11:00 +39°C° 0 mm 2 m/S 751 mmHg 46%
    12:00 +40°C° 0 mm 2 m/S 750 mmHg 43%
    13:00 +42°C° 0 mm 3 m/S 750 mmHg 40%
    14:00 +39°C° 0.3 mm 3 m/S 750 mmHg 52%
    15:00 +37°C° 0.3 mm 3 m/S 749 mmHg 64%
    16:00 +34°C° 0.3 mm 3 m/S 749 mmHg 75%
    17:00 +33°C° 2.4 mm 3 m/S 749 mmHg 82%
    18:00 +30°C° 2.4 mm 2 m/S 750 mmHg 88%
    19:00 +29°C° 2.4 mm 2 m/S 751 mmHg 94%
    20:00 +29°C° 0.2 mm 2 m/S 751 mmHg 94%
    21:00 +28°C° 0.2 mm 2 m/S 752 mmHg 93%
    22:00 +28°C° 0.2 mm 2 m/S 752 mmHg 93%
    23:00 +28°C° 0 mm 2 m/S 752 mmHg 93%

    21 Juli, Sonntag

    Zeit Temperatur Niederschläge Wind Luftdruck Luftfeuchtigkeit
    00:00 +28°C° 0 mm 2 m/S 751 mmHg 93%
    01:00 +28°C° 0 mm 2 m/S 751 mmHg 93%
    02:00 +28°C° 0 mm 2 m/S 751 mmHg 91%
    03:00 +28°C° 0 mm 2 m/S 750 mmHg 90%
    04:00 +28°C° 0 mm 2 m/S 750 mmHg 88%
    05:00 +28°C° 0 mm 2 m/S 750 mmHg 85%
    06:00 +29°C° 0 mm 2 m/S 751 mmHg 83%
    07:00 +29°C° 0 mm 2 m/S 751 mmHg 80%
    08:00 +31°C° 0 mm 2 m/S 751 mmHg 74%
    09:00 +32°C° 0 mm 2 m/S 751 mmHg 68%
    10:00 +35°C° 0 mm 2 m/S 751 mmHg 62%
    11:00 +36°C° 0 mm 2 m/S 751 mmHg 57%
    12:00 +38°C° 0 mm 2 m/S 750 mmHg 52%
    13:00 +39°C° 0 mm 2 m/S 750 mmHg 46%
    14:00 +39°C° 0.1 mm 3 m/S 750 mmHg 49%
    15:00 +38°C° 0.1 mm 3 m/S 749 mmHg 51%
    16:00 +38°C° 0.1 mm 3 m/S 749 mmHg 54%
    17:00 +36°C° 0.2 mm 3 m/S 749 mmHg 64%
    18:00 +34°C° 0.2 mm 3 m/S 750 mmHg 74%
    19:00 +30°C° 0.2 mm 2 m/S 750 mmHg 84%
    20:00 +30°C° 0.1 mm 2 m/S 751 mmHg 85%
    21:00 +30°C° 0.1 mm 2 m/S 751 mmHg 85%
    22:00 +29°C° 0.1 mm 2 m/S 752 mmHg 86%
    23:00 +29°C° 0 mm 2 m/S 751 mmHg 85%

    22 Juli, Montag

    Zeit Temperatur Niederschläge Wind Luftdruck Luftfeuchtigkeit
    00:00 +29°C° 0 mm 2 m/S 751 mmHg 84%
    01:00 +29°C° 0 mm 2 m/S 750 mmHg 83%
    02:00 +29°C° 0 mm 2 m/S 750 mmHg 83%
    03:00 +29°C° 0 mm 2 m/S 750 mmHg 82%
    04:00 +29°C° 0 mm 2 m/S 750 mmHg 81%
    05:00 +29°C° 0 mm 2 m/S 750 mmHg 80%
    06:00 +30°C° 0 mm 2 m/S 750 mmHg 78%
    07:00 +30°C° 0 mm 2 m/S 750 mmHg 77%
    08:00 +32°C° 0 mm 2 m/S 751 mmHg 69%
    09:00 +35°C° 0 mm 2 m/S 751 mmHg 60%
    10:00 +37°C° 0 mm 2 m/S 751 mmHg 52%
    11:00 +38°C° 0 mm 2 m/S 750 mmHg 50%
    12:00 +39°C° 0 mm 3 m/S 750 mmHg 48%
    13:00 +39°C° 0 mm 3 m/S 749 mmHg 46%
    14:00 +38°C° 0.1 mm 3 m/S 749 mmHg 52%
    15:00 +37°C° 0.1 mm 3 m/S 748 mmHg 58%
    16:00 +36°C° 0.1 mm 2 m/S 748 mmHg 64%
    17:00 +34°C° 0.4 mm 2 m/S 748 mmHg 72%
    18:00 +31°C° 0.4 mm 2 m/S 749 mmHg 80%
    19:00 +30°C° 0.4 mm 2 m/S 749 mmHg 87%
    20:00 +30°C° 0.4 mm 2 m/S 750 mmHg 87%
    21:00 +29°C° 0.4 mm 2 m/S 750 mmHg 86%
    22:00 +29°C° 0.4 mm 2 m/S 751 mmHg 86%
    23:00 +29°C° 0.1 mm 2 m/S 751 mmHg 85%
    Mehr zeigen